Flag for Portugal Weather past 2 weeks in Ponta Delgada, Azores, Portugal

61 °F

Passing clouds.

Feels Like: 61 °F
Forecast: N/A
Wind: 9 mph from Northeast

Location: Ponta Delgada / Nordela Acores

Current Time: Nov 27, 2015 at 9:02:42 PM

Latest Report: Nov 27, 2015 at 8:00 PM

Visibility: N/A

Pressure: 30.45 "Hg

Humidity: 77%

Dew point: 54 °F

Location of Ponta DelgadaLocation

Historic Weather in Ponta Delgada — Graph


Ponta Delgada temperature yesterday

Maximum temperature yesterday: 64 °F (at 1:30 PM)
Minimum temperature yesterday: 57 °F (at 6:00 AM)
Average temperature yesterday: 60 °F

Past Weeks' High & Low Weather Summary

High68 °F (Nov 13, 1:30 PM)100% (Nov 12, 8:30 PM)30.72 "Hg (Nov 12, 8:30 PM)
Low52 °F (Nov 23, 5:30 AM)59% (Nov 23, 11:30 AM)30.15 "Hg (Nov 15, 1:30 PM)
Average63 °F86%30.40 "Hg
* Reported Nov 12 7:00 PM — Nov 27 7:30 PM, Ponta Delgada, Weather by CustomWeather, © 2015

Note: Actual official high and low records may vary slightly from our data, if they occured in-between our weather recording intervals... More about our weather records


Ponta Delgada weather history for previous 24 hours

Time TempWeatherWind HumidityBarometerVisibility
7:30 PM
Fri, Nov 27
61 °FPassing clouds.8 mph77%30.45 "HgN/A
7:00 PM61 °FPassing clouds.7 mph77%30.45 "HgN/A
6:30 PM61 °FPassing clouds.9 mph72%30.45 "HgN/A
6:00 PM61 °FPassing clouds.12 mph68%30.45 "HgN/A
5:30 PM61 °FPassing clouds.12 mph68%30.45 "HgN/A
5:00 PM61 °FPartly sunny.12 mph68%30.42 "HgN/A
4:30 PM61 °FPartly sunny.10 mph68%30.42 "HgN/A
4:00 PM61 °FPartly sunny.13 mph68%30.42 "HgN/A
3:30 PM61 °FPartly sunny.12 mph68%30.42 "HgN/A
3:00 PM61 °FPartly sunny.13 mph72%30.42 "HgN/A
2:30 PM63 °FPartly sunny.12 mph64%30.42 "HgN/A
2:00 PM63 °FPartly sunny.12 mph68%30.42 "HgN/A
1:30 PM63 °FPartly sunny.10 mph64%30.45 "HgN/A
1:00 PM63 °FPartly sunny.13 mph64%30.45 "HgN/A
12:30 PM63 °FPartly sunny.13 mph68%30.45 "HgN/A
12:00 PM61 °FScattered clouds.13 mph72%30.48 "HgN/A
11:30 AM63 °FScattered clouds.12 mph64%30.48 "HgN/A
11:00 AM63 °FScattered clouds.15 mph64%30.48 "HgN/A
10:30 AM63 °FPassing clouds.13 mph64%30.48 "HgN/A
10:00 AM63 °FPassing clouds.13 mph64%30.48 "HgN/A
9:30 AM61 °FPassing clouds.12 mph63%30.48 "HgN/A
9:00 AM59 °FPassing clouds.14 mph68%30.48 "HgN/A
8:30 AM59 °FPassing clouds.13 mph68%30.48 "HgN/A
8:00 AM59 °FPassing clouds.12 mph72%30.45 "HgN/A
7:30 AM57 °FPassing clouds.13 mph72%30.45 "HgN/A
7:00 AM57 °FPassing clouds.12 mph72%30.45 "HgN/A
5:30 AM57 °FPassing clouds.14 mph72%30.45 "HgN/A
5:00 AM57 °FPassing clouds.14 mph72%30.45 "HgN/A
4:30 AM57 °FPassing clouds.15 mph77%30.45 "HgN/A
4:00 AM57 °FPassing clouds.14 mph77%30.45 "HgN/A
3:00 AM57 °FPassing clouds.13 mph72%30.45 "HgN/A
2:30 AM57 °FPassing clouds.13 mph77%30.48 "HgN/A
2:00 AM57 °FPassing clouds.7 mph77%30.48 "HgN/A
1:30 AM57 °FPassing clouds.6 mph77%30.48 "HgN/A
1:00 AM55 °FPassing clouds.8 mph82%30.51 "HgN/A
12:30 AM57 °FPassing clouds.6 mph77%30.51 "HgN/A
12:00 AM57 °FPassing clouds.6 mph77%30.51 "HgN/A
11:30 PM
Thu, Nov 26
57 °FPassing clouds.8 mph77%30.51 "HgN/A
11:00 PM57 °FPassing clouds.7 mph77%30.51 "HgN/A
10:30 PM57 °FPassing clouds.10 mph77%30.51 "HgN/A
9:30 PM59 °FPassing clouds.10 mph72%30.51 "HgN/A
9:00 PM59 °FPassing clouds.12 mph77%30.54 "HgN/A
Weather by CustomWeather, © 2015

See weather overviewHow to use our weather pages